036  
ASUS41 KCLE 201212  
RWRCLE  
OHIO REGIONAL WEATHER ROUNDUP  
NATIONAL WEATHER SERVICE WILMINGTON, OH  
800 AM EDT THU JUL 20 2017  
 
NOTE: "FAIR" INDICATES FEW OR NO CLOUDS BELOW 12,000 FEET WITH NO  
SIGNIFICANT WEATHER AND/OR S TO VISIBILITY
.  
 
OHZ001>008-015>018-024>027-034-035-043-044-201300-  
NORTHWEST OHIO  
 
CITY SKY/WX TMP DP RH WIND PRES REMARKS
 
DEFIANCE FAIR 74 68 81 CALM 30.04F  
FINDLAY FAIR 76 71 85 SW8 30.05R  
TOLEDO EXPRESS FAIR 74 73 97 SW8 30.01S  
TOLEDO EXEC FAIR 76 74 93 SW8 30.03R FOG  
LIMA PTSUNNY 75 73 93 SW8 30.08R  

 
 
OHZ009>014-019>023-028>033-038-089-201300-  
NORTHEAST OHIO  
 
CITY SKY/WX TMP DP RH WIND PRES REMARKS
 
CLE-HOPKINS PTSUNNY 77 69 76 SW9 30.05R  
CLE-LAKEFRONT FAIR 79 68 69 SW8 30.02R  
CUY CO. ARPT CLOUDY 77 70 78 SW8 30.03S  
LORAIN-ELYRIA FAIR 74 66 76 SW8 30.05R  
ASHTABULA FAIR 72 68 87 S6 30.04S  
AKRON-CANTON FAIR 75 66 73 SW6 30.07R  
WOOSTER FAIR 72 69 90 S3 30.08R  
MANSFIELD FAIR 75 70 84 SW7 30.09R  
YOUNGSTOWN CLOUDY 73 67 81 SW5 30.06R  

 
 
OHZ042-051>053-060>062-070>072-077>081-201300-  
SOUTHWEST OHIO  
 
CITY SKY/WX TMP DP RH WIND PRES REMARKS
 
CINC-COVINGTON PTSUNNY 73 72 96 SW3 30.12R  
CINC-LUNKEN FAIR 71 70 96 CALM 30.11R  
HAMILTON FAIR 73 72 96 SW3 30.11R  
DAYTON PTSUNNY 74 71 91 SW7 30.12R  
WRIGHT-PAT AFB FAIR 73 72 97 CALM 30.11R  
DAYTON GENERAL FAIR 74 70 87 SW5 30.11R  
WILMINGTON FAIR 72 70 93 CALM 30.11R  

 
 
OHZ036-037-039>041-045>050-054>059-063>069-073>076-082>088-201300-  
CENTRAL AND SOUTHEAST OHIO  
 
CITY SKY/WX TMP DP RH WIND PRES REMARKS
 
COLUMBUS PTSUNNY 74 70 87 SE5 30.09R  
OSU AIRPORT FAIR 75 71 87 SW7 30.10R  
BOLTON FIELD SUNNY 72 70 94 CALM 30.11R  
RICKENBACK AFB FAIR 70 69 97 S3 30.10R  
NEWARK FAIR 71 68 90 CALM 30.10R  
MARION FAIR 73 69 87 SW5 30.09R  
LANCASTER FAIR 68 68 100 CALM 30.11R  
ZANESVILLE FAIR 72 68 87 SW5 30.10R  
NEW PHILLY FOG 70 70 100 SE3 30.09R VSB 1/4  

 
 
 
CLICK HERE TO GO TO PREVIOUS BULLETINS.

The Nexlab OH Page
The Nexlab PA Page Main Text Page